Location: Ahausen
(50.4985°N, 8.2722°E)
Time: 01:23:07
(UTC+00:00)

CUTE 1.7 + AOD 2 - Pass Details

Date: 01 July 2022
Orbit: 589 x 608 km, 97.7° (Epoch: 07 August)

Event Time Altitude Azimuth Distance (km) Brightness Sun altitude
Rises 02:05:35 0° 30° (NNE) 2,855 ? -8.8°
Reaches altitude 10° 02:08:49 10° 57° (ENE) 1,941 ? -8.5°
Maximum altitude 02:10:57 14° 87° (E) 1,709 ? -8.3°
Drops below altitude 10° 02:13:04 10° 118° (ESE) 1,927 ? -8.1°
Sets 02:16:15 0° 145° (SE) 2,818 ? -7.8°
